Zurück zum Katalog

COSMOS 2251 DEB

AktivLEO
NORAD 34026·DEBRIS·🇷🇺 Russia

Gestartet Jun 16, 1993 von Plesetsk Cosmodrome

Loading…

Nächste Überflüge (nächste 24 Stunden)

TLE

AktuellSource: Space-Track

Epoche: Sep 13, 2026, 09:55 UTC

1 34026U 93036HM  26256.41365301  .00000677  00000-0  56714-3 0  9996
2 34026  73.7647 240.3778 0344273  67.5868  52.1153 13.65788885872817

Verfolge COSMOS 2251 DEB in Echtzeit mit AllMySat

Download on the App Store